www.pogodaiklimat.ru

Погода и климат >> Архив погоды >> Хорватия >> Риека аэропорт


ПОГОДА в Риека аэропорту

  • Прогноз погоды в Риека аэропорту
  • Монитор погоды в Риека аэропорту

АРХИВ ПОГОДЫ в Риека аэропорту

Время (UTC), дата Ветер
(напр.,м/с)
 
Видим.   Явления Облачность Т
(С)
Тd
(С)
f
(%)
Тe
(С)
Тes
(С)
Комфортность P
(гПа)
Po
(гПа)
Тmin
(С)
Tmax
(С)
R
(мм)
R24
(мм)
S
(см)
09 14.07 СЗ 3 40 км 4/3 1350 м
[Cu Sc Ac trans]
+25.2 +10.4 39 +26 +34 жарко 1012.3 1002.5
12 14.07 СЗ 3 40 км 6/5 1200 м
[Cu Sc Ac cuf]
+25.1 +12.7 46 +27 +33 жарко 1012.0 1002.2
15 14.07 З 2 40 км 3/1 1200 м
[Cu med, cong Ac cuf]
+27.2 +11.9 39 +28 +34 жарко 1010.9 1001.1
18 14.07 С 2 30 км 3/0
[Ac trans]
+24.5 +12.0 46 +26 +26 жарко 1011.0 1000.9 +27.3
21 14.07 В 2 20 км ясно +21.5 +11.7 54 +24 +24 комфорт 1011.7 1001.6
00 15.07 СВ 2 20 км ясно +21.1 +11.4 54 +23 +23 комфорт 1011.7 1001.6
03 15.07 ЮЗ 3 20 км ясно +18.5 +11.8 65 +19 +19 1010.7 1000.6
06 15.07 ЮЗ 2 20 км 4/0
[Ac trans Ci fib]
+22.4 +11.4 50 +25 +28 комфорт 1011.0 1000.9 +17.9
09 15.07 В 5 20 км 6/0
[Ac trans Cs]
+24.8 +10.4 40 +26 +32 жарко 1011.3 1001.2
12 15.07 СВ 4 50 км ?/? +26.0 +10.1 37 +27 +35 жарко 1011.1 1001.0
15 15.07 В 4 20 км 9/1 1000 м
[Cu hum Ac trans Cs]
+25.1 +10.3 39 +26 +29 жарко 1011.5 1001.4
18 15.07 З 3 40 км 6/0
[Cs]
+24.3 +10.3 41 +25 +25 комфорт 1011.1 1001.3 +26.8
21 15.07 В 5 30 км 3/0
[Ac lent Ci fib]
+23.4 +10.3 44 +25 +25 комфорт 1012.0 1002.2
00 16.07 СВ 3 30 км 8/0
[Cs]
+22.8 +9.8 44 +25 +25 комфорт 1012.1 1002.3
03 16.07 Ю 2 30 км ясно +20.9 +8.7 46 +23 +23 комфорт 1011.7 1001.9
06 16.07 С 5 40 км 1/0
[Ac trans]
+23.5 +8.3 38 +24 +26 комфорт 1012.9 1002.7 +19.9
09 16.07 В 3 40 км 1/1 1500 м
[Cu hum]
+25.9 +9.4 35 +26 +38 жарко 1012.9 1002.8
12 16.07 СВ 5 40 км 3/3 1500 м
[Cu hum]
+28.6 +8.8 29 +28 +35 жарко 1012.5 1002.4
15 16.07 С 6 40 км 1/1 1500 м
[Cu hum]
+28.4 +8.8 29 +28 +31 жарко 1012.2 1002.1
18 16.07 СВ 4 30 км ясно +27.1 +7.5 29 +27 +27 жарко 1012.2 1002.1 +28.7
21 16.07 В 1 20 км ясно +22.2 +11.6 51 +24 +24 комфорт 1013.7 1003.6
00 17.07 С 1 20 км ясно +18.6 +10.9 61 +20 +20 1014.2 1004.1
03 17.07 В 2 20 км ясно +17.2 +11.9 71 +18 +18 1013.8 1003.7
06 17.07 СЗ 1 30 км ясно +22.8 +13.1 54 +26 +30 жарко 1013.7 1003.8 +16.4
09 17.07 З 3 40 км 3/1 1200 м
[Cu hum Cs]
+27.1 +13.3 43 +29 +40 жарко 1013.2 1003.4
12 17.07 ЮЗ 2 40 км 6/1 1200 м
[Cu hum Cs]
+29.9 +12.6 35 +31 +45 жарко 1011.8 1002.2
15 17.07 ЮЗ 4 35 км 8/1 1200 м
[Cu hum Ac trans Cs]
+28.7 +14.3 41 +31 +34 жарко 1011.2 1001.6
18 17.07 Ю 3 30 км ясно +25.7 +14.8 51 +28 +28 жарко 1011.0 1000.9 +30.0
21 17.07 В 2 20 км 3/0
[Ci fib]
+23.3 +15.3 61 +28 +28 душно 1011.6 1001.5
00 18.07 ЮЗ 1 20 км 3/0
[Ci fib]
+21.2 +15.7 71 +24 +24 комфорт 1011.4 1001.3
03 18.07 ЮЗ 1 20 км ясно +20.3 +1.0 28 +22 +22 комфорт 1011.1 1001.0
06 18.07 С 4 20 км слаб. дождь 9/8 600 м
[Sc Ac As]
+22.7 +12.2 51 +25 +26 комфорт 1011.9 1001.8 +18.6 0.0
09 18.07 В 2 30 км 6/3 1500 м
[Sc Ac trans]
+26.4 +13.9 46 +29 +36 жарко 1012.1 1002.0
12 18.07 З 3 30 км {дождь} 9/1 1500 м
[Cu med, cong Cs]
+29.4 +10.8 32 +30 +41 жарко 1012.0 1001.9 0.0
15 18.07 С 2 30 км 8/4 1500 м
[Cu Sc Ci sp]
+27.2 +12.7 41 +29 +33 жарко 1012.1 1002.0
18 18.07 В 2 30 км {гроза} 8/4 1500 м
[Sc Ac trans]
+25.5 +14.2 50 +28 +28 жарко 1012.6 1002.5 +31.1 0.0
21 18.07 В 1 30 км 8/4 1500 м
[Sc Ac trans]
+23.1 +15.8 63 +27 +27 душно 1013.7 1003.6
00 19.07 СВ 3 30 км 8/4 1500 м
[Sc Ac trans]
+23.5 +13.6 54 +26 +26 жарко 1014.3 1004.2
03 19.07 Ю 1 30 км 4/3 1500 м
[Sc Ac trans]
+20.7 +17.3 81 +25 +25 комфорт 1014.6 1004.5
06 19.07 С 1 30 км 4/0
[Ci fib]
+23.6 +17.4 68 +27 +32 жарко 1015.4 1005.3 +19.5
09 19.07 З 2 30 км 8/0
[Ci fib]
+28.5 +15.5 45 +31 +44 душно 1016.0 1005.9
12 19.07 З 3 30 км 3/1 1500 м
[Cu med, cong Ci fib]
+29.5 +12.3 35 +31 +43 жарко 1015.8 1005.7
15 19.07 СЗ 3 30 км 4/1 1500 м
[Cu med, cong Ac cuf Ci sp]
+29.4 +13.8 38 +31 +36 жарко 1015.7 1005.6
18 19.07 СЗ 2 30 км 3/0
[Ac trans Ci fib]
+25.6 +17.9 62 +30 +30 душно 1015.7 1005.6 +30.2
21 19.07 штиль 0 30 км 3/0
[Ci fib]
+23.2 +15.6 62 +27 +27 душно 1017.1 1007.0
00 20.07 В 1 30 км 3/0
[Ci fib]
+21.4 +14.8 66 +24 +24 комфорт 1017.4 1007.3
03 20.07 ЮВ 1 30 км 3/0
[Ci fib]
+19.6 +15.8 79 +23 +23 комфорт 1017.5 1007.4
06 20.07 СЗ 1 40 км ясно +25.1 +17.4 62 +29 +33 душно 1018.1 1007.9 +19.5
09 20.07 СЗ 2 40 км ясно +27.8 +16.0 49 +31 +46 душно 1018.4 1008.2
12 20.07 З 3 40 км ясно +29.1 +13.8 39 +31 +45 жарко 1018.6 1008.4
15 20.07 СЗ 2 40 км ясно +29.7 +15.2 41 +32 +40 душно 1018.2 1008.0
18 20.07 СЗ 3 40 км 3/0
[Ci sp]
+26.1 +18.3 62 +31 +31 очень
душно
1018.2 1008.0 +31.0
21 20.07 СЗ 1 40 км ясно +22.3 +19.9 86 +28 +28 душно 1019.1 1008.9
00 21.07 З 1 30 км 5/0
[Ci sp]
+22.0 +19.8 87 +28 +28 душно 1019.9 1009.2
03 21.07 штиль 0 30 км 8/0
[Ac As]
+21.2 +18.4 84 +25 +25 комфорт 1018.8 1008.6

 

Местоположение метеостанции Риека аэропорт (Хорватия): широта 45.22 долгота 14.58 высота над уровнем моря 85 м.

В архиве по умолчанию представлена погода в Риека аэропорту за последнюю неделю. Архивные данные за месяц целиком и за предыдущие месяцы, начиная с января 2011 года, Вы можете получить, выбрав интересующий диапазон дат из раскрывающегося списка и нажав кнопку "Ввод!".


*Определитесь, кто Вы:
робот инопланетянин человек

Внимание! Время в таблицах - всемирное. Для получения местного времени необходимо прибавить поправку, которая равна 1 ч.

Смотрите также архив погоды в соседних городах и на ближайших метеорологических станциях:

Погода в Риеке (Хорватия) (16 км)
Погода в Сене (Хорватия) (35 км)
Погода в Парке (Хорватия) (42 км)
Погода в Пазине (Хорватия) (51 км)
Погода в Огулине (Хорватия) (51 км)
Погода в Кочевье (Словения) (52 км)
Погода в Рабе (Хорватия) (54 км)
Погода в Завизани (Хорватия) (54 км)
Погода в Чрномеле (Словения) (59 км)
Погода в Пуле (Хорватия) (63 км)

Пояснения к столбцам:

Ветер - указаны скорость ветра в м/с - средняя за 10 мин, порывы в срок и между сроками (в фигурных скобках) и направление, откуда дует ветер: С - северный, СВ - северо-восточный, В - восточный, ЮВ - юго-восточный, Ю - южный, ЮЗ - юго-западный, З - западный, СЗ - северо-западный.
Видимость - горизонтальная дальность видимости в метрах или километрах. При видимости от 1 до 10 км при отсутствии осадков обычно наблюдается дымка, при ухудшении видимости до 1 км и менее - туман. В сухую погоду видимость может ухудшаться дымом, пылью или мглою.
Явления - указаны атмосферные явления, наблюдавшиеся в срок или в последний час перед сроком; фигурными скобками обозначены явления, наблюдавшиеся между сроками (за 1-3 часа до срока); квадратными скобками обозначены град или гололедные отложения с указанием их диаметра в мм.
Облачность - указаны через наклонную черту общая и нижняя облачность в баллах и высота нижней границы облаков в метрах; квадратными скобками обозначены формы облаков: Ci - перистые, Cs - перисто-слоистые, Cc - перисто-кучевые, Ac - высококучевые, As - высокослоистые, Sc - слоисто-кучевые, Ns - слоисто-дождевые, Cu - кучевые, Cb - кучево-дождевые. Подробнее классификацию облаков см. в Атласе облаков (PDF).
T - Температура воздуха - температура, измеренная на высоте 2 м над землей.
Td - Температура точки росы - температура, при понижении до которой содержащийся в воздухе водяной пар достигнет насыщения.
f - Относительная влажность воздуха - влажноcть воздуха, измеренная на высоте 2 м над землей.
Te - Эффективная температура - температура, которую ощущает одетый по сезону человек в тени. Характеристика душности погоды. При расчете учитывается влияние влажности воздуха и скорости ветра на теплоощущения человека.
Tes - Эффективная температура на солнце - температура, которую ощущает человек, с поправкой на солнечный нагрев. Характеристика знойности погоды. Зависит от высоты солнца над горизонтом, облачности и скорости ветра. Ночью, в пасмурную погоду, а также при ветре 12 м/с и более поправка равна нулю.
P - Атмосферное давление - приведенное к уровню моря атмосферное давление.
Po - Атмосферное давление - измеренное на уровне метеостанции атмосферное давление.
Tmin - Минимальная температура - минимум температуры воздуха на высоте 2 м над землей.
Tmax - Максимальная температура - максимум температуры воздуха на высоте 2 м над землей.
R - Количество осадков - Количество выпавших осадков за период времени, мм. При наведении курсора мыши на число - период времени, за который выпало указанное количество осадков.
R24 - Количество осадков - Количество выпавших осадков за 24 часа, мм.
S - Снежный покров - Высота снежного покрова, см. При наведении курсора мыши на число - состояние снежного покрова и степень покрытия местности в баллах.